AMX657 MROC-MMMX

Flight info

Callsign AMX657
Flight time 2h 33m
Altitude 38000
Route NANJO4L LIB UL200 ALSAL UL318 IZT J13 OAX UJ33 ERDEL UT110 LARLO LARLO4A
Aircraft B38M/M-SDE1FGHILORVWXY/HB1

Departure

Time 2026-05-04 18:38
Airport Juan Santamaría International Airport (MROC)

Arrival

Time 2026-05-04 21:11
Airport Mexico City Benito Juárez International Airport (MMMX)
Time Latitude Longitude Altitude Speed Heading
2026-05-04 18:18 9.99736 -84.20383 3036 ft 0 kts 339°
2026-05-04 18:28 9.99731 -84.20381 3037 ft 2 kts 338°
2026-05-04 18:28 9.99715 -84.20375 3038 ft 2 kts 340°
2026-05-04 18:28 9.99700 -84.20369 3036 ft 2 kts 344°
2026-05-04 18:28 9.99684 -84.20368 3035 ft 2 kts 38°
2026-05-04 18:29 9.99677 -84.20377 3036 ft 1 kts 68°
2026-05-04 18:29 9.99677 -84.20378 3036 ft 0 kts 68°
2026-05-04 18:31 9.99677 -84.20377 3036 ft 1 kts 68°
2026-05-04 18:31 9.99684 -84.20362 3036 ft 4 kts 68°
2026-05-04 18:32 9.99699 -84.20321 3038 ft 8 kts 71°
2026-05-04 18:32 9.99724 -84.20253 3038 ft 8 kts 70°
2026-05-04 18:32 9.99736 -84.20221 3036 ft 4 kts 69°
2026-05-04 18:32 9.99748 -84.20187 3037 ft 6 kts 69°
2026-05-04 18:33 9.99767 -84.20137 3036 ft 8 kts 69°
2026-05-04 18:33 9.99782 -84.20097 3036 ft 0 kts 69°
2026-05-04 18:33 9.99783 -84.20095 3038 ft 1 kts 69°
2026-05-04 18:34 9.99794 -84.20064 3037 ft 7 kts 70°
2026-05-04 18:34 9.99799 -84.20038 3036 ft 0 kts 93°
2026-05-04 18:35 9.99780 -84.20011 3037 ft 7 kts 142°
2026-05-04 18:36 9.99725 -84.20003 3041 ft 9 kts 219°
2026-05-04 18:36 9.99704 -84.20045 3040 ft 0 kts 249°
2026-05-04 18:37 9.99702 -84.20052 3041 ft 9 kts 249°
2026-05-04 18:37 9.99576 -84.20388 3040 ft 91 kts 249°
2026-05-04 18:38 9.99260 -84.21238 3008 ft 163 kts 250°
2026-05-04 18:38 9.98820 -84.22392 3678 ft 177 kts 249°
2026-05-04 18:38 9.98358 -84.23562 4616 ft 181 kts 249°
2026-05-04 18:38 9.97892 -84.24807 5204 ft 202 kts 257°
2026-05-04 18:39 9.97885 -84.26295 5720 ft 224 kts 290°
2026-05-04 18:39 9.98819 -84.27619 6258 ft 243 kts 326°
2026-05-04 18:39 10.00295 -84.28552 6881 ft 260 kts 329°
2026-05-04 18:39 10.01869 -84.29575 7614 ft 277 kts 329°
2026-05-04 18:40 10.03536 -84.30674 8320 ft 292 kts 328°
2026-05-04 18:40 10.05255 -84.31818 9254 ft 297 kts 328°
2026-05-04 18:40 10.07001 -84.32981 10181 ft 303 kts 328°
2026-05-04 18:40 10.08788 -84.34174 10807 ft 319 kts 328°
2026-05-04 18:41 10.10467 -84.35726 11427 ft 332 kts 306°
2026-05-04 18:41 10.11527 -84.37817 12285 ft 336 kts 293°
2026-05-04 18:41 10.12456 -84.40010 13147 ft 339 kts 293°
2026-05-04 18:41 10.13386 -84.42228 13986 ft 342 kts 292°
2026-05-04 18:42 10.14304 -84.44438 14716 ft 344 kts 292°
2026-05-04 18:42 10.15236 -84.46693 15435 ft 348 kts 293°
2026-05-04 18:42 10.16175 -84.48973 16139 ft 351 kts 293°
2026-05-04 18:42 10.17124 -84.51278 16841 ft 354 kts 293°
2026-05-04 18:43 10.18066 -84.53567 17522 ft 357 kts 293°
2026-05-04 18:43 10.19026 -84.55903 18205 ft 361 kts 293°
2026-05-04 18:43 10.20001 -84.58274 18784 ft 363 kts 293°
2026-05-04 18:43 10.20981 -84.60661 19371 ft 366 kts 293°
2026-05-04 18:44 10.21950 -84.63019 19952 ft 367 kts 293°
2026-05-04 18:44 10.22282 -84.63828 20143 ft 368 kts 293°
2026-05-04 18:44 10.23929 -84.67838 21077 ft 372 kts 292°
2026-05-04 18:44 10.24925 -84.70263 21628 ft 374 kts 292°
2026-05-04 18:45 10.25930 -84.72709 22174 ft 376 kts 292°
2026-05-04 18:45 10.26937 -84.75163 22717 ft 378 kts 292°
2026-05-04 18:45 10.27951 -84.77636 23240 ft 380 kts 292°
2026-05-04 18:45 10.28973 -84.80127 23732 ft 382 kts 292°
2026-05-04 18:46 10.30001 -84.82632 24123 ft 385 kts 292°
2026-05-04 18:46 10.31024 -84.85129 24524 ft 387 kts 291°
2026-05-04 18:46 10.32076 -84.87694 24940 ft 390 kts 292°
2026-05-04 18:46 10.33110 -84.90216 25334 ft 393 kts 292°
2026-05-04 18:47 10.34165 -84.92792 25745 ft 395 kts 292°
2026-05-04 18:47 10.35228 -84.95388 26146 ft 398 kts 292°
2026-05-04 18:47 10.36299 -84.98004 26534 ft 402 kts 292°
2026-05-04 18:47 10.37366 -85.00609 26926 ft 404 kts 292°
2026-05-04 18:48 10.38452 -85.03265 27310 ft 407 kts 292°
2026-05-04 18:48 10.39547 -85.05940 27702 ft 410 kts 292°
2026-05-04 18:48 10.40647 -85.08628 28071 ft 412 kts 292°
2026-05-04 18:48 10.41704 -85.11213 28427 ft 415 kts 292°
2026-05-04 18:49 10.42818 -85.13939 28791 ft 418 kts 292°
2026-05-04 18:49 10.43937 -85.16675 29149 ft 420 kts 292°
2026-05-04 18:49 10.45063 -85.19432 29517 ft 422 kts 292°
2026-05-04 18:49 10.46180 -85.22168 29869 ft 425 kts 292°
2026-05-04 18:50 10.47320 -85.24959 30171 ft 427 kts 292°
2026-05-04 18:50 10.48465 -85.27764 30457 ft 430 kts 292°
2026-05-04 18:50 10.49615 -85.30581 30734 ft 432 kts 292°
2026-05-04 18:50 10.50757 -85.33379 31015 ft 435 kts 292°
2026-05-04 18:51 10.51921 -85.36234 31279 ft 437 kts 292°
2026-05-04 18:51 10.53094 -85.39110 31544 ft 440 kts 292°
2026-05-04 18:51 10.53870 -85.41016 31714 ft 442 kts 292°
2026-05-04 18:51 10.55052 -85.43915 31989 ft 444 kts 292°
2026-05-04 18:52 10.56626 -85.47779 32339 ft 447 kts 292°
2026-05-04 18:52 10.57822 -85.50714 32593 ft 450 kts 292°
2026-05-04 18:52 10.58618 -85.52669 32772 ft 452 kts 292°
2026-05-04 18:52 10.59936 -85.55586 33013 ft 454 kts 297°
2026-05-04 18:53 10.61363 -85.58460 33273 ft 456 kts 296°
2026-05-04 18:53 10.63240 -85.62306 33600 ft 459 kts 296°
2026-05-04 18:53 10.64198 -85.64284 33775 ft 461 kts 296°
2026-05-04 18:53 10.65616 -85.67216 34005 ft 463 kts 296°
2026-05-04 18:54 10.67024 -85.70129 34217 ft 465 kts 296°
2026-05-04 18:54 10.68453 -85.73088 34456 ft 466 kts 296°
2026-05-04 18:54 10.69884 -85.76050 34727 ft 466 kts 296°
2026-05-04 18:54 10.71317 -85.79019 35000 ft 466 kts 296°
2026-05-04 18:55 10.72728 -85.81944 35272 ft 466 kts 295°
2026-05-04 18:55 10.75591 -85.87878 35824 ft 466 kts 295°
2026-05-04 18:55 10.77023 -85.90848 36106 ft 466 kts 295°
2026-05-04 18:56 10.78449 -85.93804 36391 ft 465 kts 295°
2026-05-04 18:56 10.79872 -85.96758 36674 ft 465 kts 295°
2026-05-04 18:56 10.81308 -85.99673 36929 ft 464 kts 298°
2026-05-04 18:56 10.82881 -86.02546 37202 ft 464 kts 298°
2026-05-04 18:57 10.84441 -86.05425 37454 ft 464 kts 298°
2026-05-04 18:57 10.85996 -86.08312 37699 ft 463 kts 298°
2026-05-04 18:57 10.87526 -86.11157 37891 ft 464 kts 298°
2026-05-04 18:57 10.89074 -86.14039 37915 ft 463 kts 297°
2026-05-04 18:58 10.92157 -86.19780 37906 ft 461 kts 297°
2026-05-04 18:58 10.95215 -86.25478 37905 ft 461 kts 297°
2026-05-04 18:59 10.98292 -86.31212 37904 ft 461 kts 297°
2026-05-04 18:59 11.01374 -86.36963 37905 ft 461 kts 297°
2026-05-04 19:00 11.04449 -86.42701 37910 ft 462 kts 297°
2026-05-04 19:00 11.07515 -86.48425 37913 ft 462 kts 297°
2026-05-04 19:01 11.10578 -86.54148 37910 ft 462 kts 297°
2026-05-04 19:01 11.13663 -86.59915 37911 ft 462 kts 297°
2026-05-04 19:02 11.16724 -86.65640 37908 ft 462 kts 297°
2026-05-04 19:02 11.19804 -86.71405 37913 ft 461 kts 297°
2026-05-04 19:03 11.22860 -86.77126 37913 ft 461 kts 297°
2026-05-04 19:03 11.25926 -86.82871 37912 ft 461 kts 297°
2026-05-04 19:04 11.28973 -86.88582 37909 ft 460 kts 297°
2026-05-04 19:04 11.32036 -86.94329 37907 ft 460 kts 297°
2026-05-04 19:05 11.35078 -87.00038 37906 ft 459 kts 297°
2026-05-04 19:05 11.38127 -87.05765 37907 ft 459 kts 297°
2026-05-04 19:06 11.41172 -87.11487 37909 ft 458 kts 297°
2026-05-04 19:06 11.44201 -87.17181 37909 ft 458 kts 297°
2026-05-04 19:07 11.47240 -87.22897 37909 ft 458 kts 297°
2026-05-04 19:07 11.50271 -87.28603 37911 ft 457 kts 297°
2026-05-04 19:08 11.53283 -87.34275 37911 ft 457 kts 297°
2026-05-04 19:08 11.56314 -87.39987 37910 ft 457 kts 297°
2026-05-04 19:09 11.59340 -87.45693 37913 ft 457 kts 297°
2026-05-04 19:09 11.62346 -87.51364 37911 ft 456 kts 297°
2026-05-04 19:10 11.65366 -87.57065 37912 ft 456 kts 297°
2026-05-04 19:10 11.68395 -87.62787 37913 ft 457 kts 297°
2026-05-04 19:11 11.71392 -87.68453 37908 ft 457 kts 297°
2026-05-04 19:11 11.74422 -87.74181 37912 ft 457 kts 297°
2026-05-04 19:12 11.78930 -87.82713 37918 ft 456 kts 297°
2026-05-04 19:13 11.81931 -87.88397 37912 ft 456 kts 297°
2026-05-04 19:13 11.84945 -87.94109 37915 ft 456 kts 297°
2026-05-04 19:14 11.87941 -87.99790 37911 ft 456 kts 297°
2026-05-04 19:14 11.90953 -88.05503 37916 ft 456 kts 297°
2026-05-04 19:15 11.93959 -88.11208 37916 ft 456 kts 297°
2026-05-04 19:15 11.96950 -88.16890 37918 ft 456 kts 296°
2026-05-04 19:16 11.99929 -88.22621 37917 ft 455 kts 296°
2026-05-04 19:16 12.02876 -88.28319 37916 ft 455 kts 296°
2026-05-04 19:17 12.05833 -88.34037 37918 ft 455 kts 296°
2026-05-04 19:17 12.08789 -88.39758 37921 ft 455 kts 296°
2026-05-04 19:18 12.11725 -88.45441 37916 ft 454 kts 296°
2026-05-04 19:18 12.14679 -88.51165 37918 ft 454 kts 296°
2026-05-04 19:19 12.17616 -88.56860 37914 ft 454 kts 296°
2026-05-04 19:19 12.20566 -88.62581 37918 ft 454 kts 296°
2026-05-04 19:20 12.23514 -88.68303 37916 ft 454 kts 296°
2026-05-04 19:20 12.26443 -88.73993 37915 ft 453 kts 296°
2026-05-04 19:21 12.29383 -88.79706 37916 ft 453 kts 296°
2026-05-04 19:21 12.32301 -88.85382 37913 ft 453 kts 296°
2026-05-04 19:22 12.35233 -88.91086 37918 ft 452 kts 296°
2026-05-04 19:22 12.38161 -88.96788 37917 ft 452 kts 296°
2026-05-04 19:23 12.41071 -89.02456 37918 ft 452 kts 296°
2026-05-04 19:23 12.43996 -89.08159 37916 ft 451 kts 296°
2026-05-04 19:24 12.46914 -89.13851 37914 ft 451 kts 296°
2026-05-04 19:24 12.49807 -89.19494 37913 ft 450 kts 296°
2026-05-04 19:25 12.52724 -89.25188 37915 ft 450 kts 296°
2026-05-04 19:25 12.55630 -89.30863 37914 ft 450 kts 296°
2026-05-04 19:26 12.58527 -89.36522 37913 ft 450 kts 296°
2026-05-04 19:26 12.61437 -89.42213 37915 ft 450 kts 296°
2026-05-04 19:27 12.64324 -89.47863 37911 ft 450 kts 296°
2026-05-04 19:27 12.67227 -89.53545 37909 ft 450 kts 295°
2026-05-04 19:28 12.70128 -89.59230 37916 ft 450 kts 295°
2026-05-04 19:28 12.73036 -89.64930 37915 ft 450 kts 295°
2026-05-04 19:29 12.75917 -89.70582 37912 ft 450 kts 295°
2026-05-04 19:29 12.78820 -89.76280 37910 ft 450 kts 295°
2026-05-04 19:30 12.81702 -89.81941 37911 ft 450 kts 295°
2026-05-04 19:30 12.84599 -89.87635 37911 ft 450 kts 295°
2026-05-04 19:31 12.87480 -89.93301 37909 ft 450 kts 295°
2026-05-04 19:31 12.90382 -89.99013 37905 ft 449 kts 295°
2026-05-04 19:32 12.93253 -90.04668 37907 ft 449 kts 295°
2026-05-04 19:32 12.96147 -90.10370 37903 ft 449 kts 295°
2026-05-04 19:33 12.99019 -90.16034 37905 ft 449 kts 295°
2026-05-04 19:33 13.01904 -90.21726 37906 ft 449 kts 295°
2026-05-04 19:34 13.04783 -90.27411 37909 ft 449 kts 295°
2026-05-04 19:34 13.07641 -90.33059 37912 ft 449 kts 295°
2026-05-04 19:35 13.10524 -90.38757 37910 ft 448 kts 295°
2026-05-04 19:35 13.13400 -90.44448 37917 ft 448 kts 296°
2026-05-04 19:36 13.16259 -90.50108 37920 ft 448 kts 296°
2026-05-04 19:36 13.19129 -90.55795 37921 ft 448 kts 296°
2026-05-04 19:37 13.21997 -90.61482 37924 ft 448 kts 296°
2026-05-04 19:37 13.24843 -90.67125 37930 ft 447 kts 296°
2026-05-04 19:38 13.27708 -90.72815 37931 ft 447 kts 296°
2026-05-04 19:38 13.30546 -90.78452 37937 ft 447 kts 296°
2026-05-04 19:39 13.33406 -90.84136 37934 ft 446 kts 296°
2026-05-04 19:39 13.36245 -90.89784 37935 ft 446 kts 296°
2026-05-04 19:40 13.39102 -90.95471 37931 ft 447 kts 296°
2026-05-04 19:40 13.41935 -91.01114 37923 ft 447 kts 296°
2026-05-04 19:41 13.44789 -91.06802 37917 ft 447 kts 296°
2026-05-04 19:41 13.47163 -91.11537 37906 ft 448 kts 296°
2026-05-04 19:42 13.50015 -91.17230 37902 ft 448 kts 296°
2026-05-04 19:42 13.52869 -91.22930 37898 ft 448 kts 296°
2026-05-04 19:43 13.55723 -91.28633 37891 ft 448 kts 296°
2026-05-04 19:43 13.58559 -91.34306 37891 ft 449 kts 296°
2026-05-04 19:44 13.61424 -91.40039 37888 ft 449 kts 296°
2026-05-04 19:44 13.64260 -91.45719 37886 ft 449 kts 296°
2026-05-04 19:45 13.67117 -91.51443 37888 ft 449 kts 296°
2026-05-04 19:45 13.69970 -91.57165 37890 ft 449 kts 296°
2026-05-04 19:46 13.72805 -91.62856 37891 ft 449 kts 296°
2026-05-04 19:46 13.75659 -91.68587 37884 ft 449 kts 296°
2026-05-04 19:47 13.78510 -91.74317 37891 ft 449 kts 296°
2026-05-04 19:47 13.81340 -91.80007 37889 ft 448 kts 296°
2026-05-04 19:48 13.84183 -91.85729 37890 ft 448 kts 296°
2026-05-04 19:48 13.87020 -91.91442 37888 ft 448 kts 296°
2026-05-04 19:49 13.89846 -91.97139 37887 ft 447 kts 296°
2026-05-04 19:49 13.92676 -92.02845 37885 ft 447 kts 296°
2026-05-04 19:50 13.95484 -92.08514 37890 ft 447 kts 296°
2026-05-04 19:50 13.98307 -92.14216 37889 ft 446 kts 296°
2026-05-04 19:51 14.01132 -92.19925 37890 ft 446 kts 296°
2026-05-04 19:51 14.03949 -92.25624 37892 ft 446 kts 296°
2026-05-04 19:52 14.06749 -92.31292 37892 ft 446 kts 296°
2026-05-04 19:52 14.09564 -92.36993 37896 ft 446 kts 296°
2026-05-04 19:53 14.12358 -92.42654 37898 ft 445 kts 296°
2026-05-04 19:53 14.15165 -92.48346 37902 ft 445 kts 296°
2026-05-04 19:54 14.17974 -92.54048 37905 ft 446 kts 296°
2026-05-04 19:54 14.20766 -92.59718 37908 ft 445 kts 296°
2026-05-04 19:55 14.23575 -92.65426 37910 ft 446 kts 296°
2026-05-04 19:55 14.26974 -92.70755 37920 ft 447 kts 308°
2026-05-04 19:56 14.30864 -92.75734 37912 ft 448 kts 308°
2026-05-04 19:56 14.34808 -92.80730 37905 ft 448 kts 308°
2026-05-04 19:57 14.38750 -92.85720 37904 ft 448 kts 308°
2026-05-04 19:57 14.42670 -92.90683 37900 ft 448 kts 308°
2026-05-04 19:58 14.46610 -92.95677 37890 ft 448 kts 308°
2026-05-04 19:58 14.50531 -93.00647 37884 ft 448 kts 308°
2026-05-04 19:59 14.54466 -93.05639 37885 ft 447 kts 308°
2026-05-04 19:59 14.58379 -93.10605 37884 ft 447 kts 308°
2026-05-04 20:00 14.62305 -93.15592 37883 ft 447 kts 308°
2026-05-04 20:00 14.66231 -93.20582 37884 ft 446 kts 308°
2026-05-04 20:01 14.70150 -93.25566 37884 ft 446 kts 307°
2026-05-04 20:01 14.74043 -93.30519 37884 ft 446 kts 307°
2026-05-04 20:02 14.77957 -93.35504 37885 ft 445 kts 307°
2026-05-04 20:02 14.81844 -93.40457 37888 ft 445 kts 307°
2026-05-04 20:03 14.85746 -93.45432 37879 ft 445 kts 307°
2026-05-04 20:03 14.89654 -93.50417 37881 ft 444 kts 307°
2026-05-04 20:04 14.93542 -93.55381 37881 ft 444 kts 307°
2026-05-04 20:04 14.97432 -93.60349 37885 ft 443 kts 307°
2026-05-04 20:05 15.01294 -93.65286 37882 ft 443 kts 307°
2026-05-04 20:05 15.05170 -93.70244 37881 ft 443 kts 307°
2026-05-04 20:06 15.09026 -93.75179 37884 ft 442 kts 307°
2026-05-04 20:06 15.12898 -93.80138 37881 ft 442 kts 307°
2026-05-04 20:07 15.16770 -93.85100 37879 ft 442 kts 307°
2026-05-04 20:07 15.20608 -93.90022 37881 ft 441 kts 307°
2026-05-04 20:08 15.24479 -93.94989 37873 ft 441 kts 307°
2026-05-04 20:08 15.28316 -93.99915 37882 ft 441 kts 307°
2026-05-04 20:09 15.32167 -94.04862 37878 ft 441 kts 307°
2026-05-04 20:09 15.36029 -94.09827 37880 ft 441 kts 307°
2026-05-04 20:10 15.39855 -94.14750 37878 ft 440 kts 307°
2026-05-04 20:10 15.43702 -94.19702 37878 ft 440 kts 307°
2026-05-04 20:11 15.47520 -94.24622 37883 ft 440 kts 307°
2026-05-04 20:11 15.51366 -94.29579 37884 ft 440 kts 307°
2026-05-04 20:12 15.55203 -94.34527 37875 ft 439 kts 307°
2026-05-04 20:12 15.59011 -94.39442 37873 ft 439 kts 307°
2026-05-04 20:13 15.62838 -94.44385 37878 ft 439 kts 307°
2026-05-04 20:13 15.66640 -94.49300 37880 ft 438 kts 307°
2026-05-04 20:14 15.70455 -94.54234 37874 ft 438 kts 307°
2026-05-04 20:14 15.74272 -94.59174 37874 ft 437 kts 307°
2026-05-04 20:15 15.78067 -94.64089 37870 ft 437 kts 307°
2026-05-04 20:15 15.81876 -94.69023 37874 ft 436 kts 307°
2026-05-04 20:16 15.85651 -94.73919 37874 ft 436 kts 307°
2026-05-04 20:16 15.89452 -94.78851 37866 ft 436 kts 307°
2026-05-04 20:17 15.93218 -94.83742 37872 ft 435 kts 307°
2026-05-04 20:17 15.97004 -94.88661 37867 ft 435 kts 307°
2026-05-04 20:18 16.00787 -94.93579 37868 ft 435 kts 307°
2026-05-04 20:18 16.04556 -94.98484 37865 ft 434 kts 307°
2026-05-04 20:19 16.08328 -95.03395 37856 ft 434 kts 307°
2026-05-04 20:19 16.12080 -95.08282 37865 ft 434 kts 307°
2026-05-04 20:20 16.15852 -95.13200 37866 ft 434 kts 307°
2026-05-04 20:20 16.19622 -95.18119 37864 ft 434 kts 307°
2026-05-04 20:21 16.23382 -95.23027 37866 ft 435 kts 307°
2026-05-04 20:21 16.29022 -95.30397 37869 ft 435 kts 307°
2026-05-04 20:22 16.32797 -95.35333 37865 ft 435 kts 307°
2026-05-04 20:22 16.36546 -95.40239 37864 ft 435 kts 307°
2026-05-04 20:23 16.40330 -95.45195 37871 ft 435 kts 307°
2026-05-04 20:23 16.44087 -95.50118 37865 ft 435 kts 307°
2026-05-04 20:24 16.47862 -95.55068 37867 ft 435 kts 307°
2026-05-04 20:24 16.51605 -95.59979 37880 ft 435 kts 306°
2026-05-04 20:25 16.55368 -95.64920 37890 ft 435 kts 306°
2026-05-04 20:25 16.59139 -95.69874 37889 ft 435 kts 306°
2026-05-04 20:26 16.62906 -95.74827 37890 ft 436 kts 306°
2026-05-04 20:26 16.66659 -95.79765 37901 ft 436 kts 306°
2026-05-04 20:27 16.69524 -95.84085 37876 ft 432 kts 291°
2026-05-04 20:27 16.71846 -95.90952 37877 ft 431 kts 287°
2026-05-04 20:28 16.73422 -95.95899 37890 ft 432 kts 287°
2026-05-04 20:28 16.75282 -96.01866 37894 ft 432 kts 287°
2026-05-04 20:29 16.77431 -96.08798 37907 ft 432 kts 287°
2026-05-04 20:29 16.78980 -96.13803 37881 ft 431 kts 287°
2026-05-04 20:30 16.80812 -96.19729 37896 ft 432 kts 286°
2026-05-04 20:30 16.82660 -96.25712 37903 ft 432 kts 286°
2026-05-04 20:31 16.84503 -96.31687 37891 ft 432 kts 286°
2026-05-04 20:31 16.86334 -96.37628 37880 ft 432 kts 286°
2026-05-04 20:32 16.88171 -96.43600 37927 ft 430 kts 286°
2026-05-04 20:32 16.89972 -96.49462 37991 ft 421 kts 286°
2026-05-04 20:33 16.91763 -96.55299 38065 ft 422 kts 286°
2026-05-04 20:33 16.93555 -96.61143 38135 ft 422 kts 286°
2026-05-04 20:34 16.95344 -96.66986 38170 ft 422 kts 286°
2026-05-04 20:34 16.97697 -96.72533 38168 ft 423 kts 307°
2026-05-04 20:35 16.99792 -96.74712 38175 ft 428 kts 320°
2026-05-04 20:35 17.02162 -96.76611 38171 ft 430 kts 320°
2026-05-04 20:35 17.07010 -96.80322 38149 ft 431 kts 322°
2026-05-04 20:36 17.11881 -96.83948 38095 ft 431 kts 322°
2026-05-04 20:36 17.16781 -96.87572 38039 ft 431 kts 322°
2026-05-04 20:37 17.21684 -96.91197 37967 ft 430 kts 322°
2026-05-04 20:37 17.26549 -96.94797 37903 ft 430 kts 322°
2026-05-04 20:38 17.31423 -96.98406 37878 ft 428 kts 322°
2026-05-04 20:38 17.36257 -97.01988 37880 ft 427 kts 322°
2026-05-04 20:39 17.41112 -97.05589 37883 ft 426 kts 322°
2026-05-04 20:39 17.45944 -97.09173 37887 ft 425 kts 322°
2026-05-04 20:40 17.50759 -97.12749 37894 ft 424 kts 322°
2026-05-04 20:40 17.55541 -97.16302 37905 ft 422 kts 322°
2026-05-04 20:41 17.60334 -97.19865 37901 ft 422 kts 322°
2026-05-04 20:41 17.65134 -97.23436 37903 ft 422 kts 322°
2026-05-04 20:42 17.69922 -97.27001 37903 ft 421 kts 322°
2026-05-04 20:42 17.74701 -97.30561 37909 ft 421 kts 322°
2026-05-04 20:43 17.79467 -97.34113 37901 ft 421 kts 322°
2026-05-04 20:43 17.84251 -97.37682 37917 ft 422 kts 322°
2026-05-04 20:44 17.89037 -97.41255 37908 ft 421 kts 322°
2026-05-04 20:44 17.93780 -97.44798 37918 ft 421 kts 322°
2026-05-04 20:45 17.98576 -97.48383 37892 ft 421 kts 322°
2026-05-04 20:45 18.03328 -97.51938 37890 ft 421 kts 322°
2026-05-04 20:46 18.08113 -97.55518 37890 ft 421 kts 322°
2026-05-04 20:46 18.12852 -97.59069 37919 ft 421 kts 322°
2026-05-04 20:47 18.17627 -97.62647 37910 ft 420 kts 322°
2026-05-04 20:47 18.22389 -97.66219 37895 ft 419 kts 322°
2026-05-04 20:48 18.27118 -97.69768 37895 ft 419 kts 322°
2026-05-04 20:48 18.31879 -97.73344 37907 ft 417 kts 322°
2026-05-04 20:49 18.34225 -97.75106 37618 ft 411 kts 322°
2026-05-04 20:49 18.36558 -97.76861 37428 ft 414 kts 322°
2026-05-04 20:49 18.38893 -97.78616 36973 ft 418 kts 322°
2026-05-04 20:49 18.41275 -97.80407 36427 ft 421 kts 322°
2026-05-04 20:50 18.43664 -97.82204 35894 ft 423 kts 322°
2026-05-04 20:50 18.46073 -97.84018 35376 ft 426 kts 323°
2026-05-04 20:50 18.48464 -97.85818 34860 ft 428 kts 323°
2026-05-04 20:50 18.50905 -97.87657 34329 ft 431 kts 323°
2026-05-04 20:51 18.53351 -97.89500 33802 ft 434 kts 323°
2026-05-04 20:51 18.55818 -97.91360 33208 ft 436 kts 324°
2026-05-04 20:51 18.58298 -97.93229 32689 ft 437 kts 324°
2026-05-04 20:51 18.60745 -97.95074 32194 ft 438 kts 324°
2026-05-04 20:52 18.63198 -97.96980 31669 ft 436 kts 320°
2026-05-04 20:52 18.65191 -97.99400 31068 ft 437 kts 302°
2026-05-04 20:52 18.66348 -98.02366 30575 ft 438 kts 284°
2026-05-04 20:52 18.66866 -98.05524 30144 ft 434 kts 283°
2026-05-04 20:53 18.67415 -98.08604 29622 ft 432 kts 283°
2026-05-04 20:53 18.67963 -98.11713 29087 ft 429 kts 283°
2026-05-04 20:53 18.68501 -98.14797 28613 ft 425 kts 283°
2026-05-04 20:53 18.69033 -98.17855 28155 ft 422 kts 283°
2026-05-04 20:54 18.69561 -98.20900 27696 ft 418 kts 283°
2026-05-04 20:54 18.70084 -98.23916 27250 ft 415 kts 282°
2026-05-04 20:54 18.70595 -98.26868 26808 ft 413 kts 282°
2026-05-04 20:54 18.71109 -98.29841 26373 ft 410 kts 282°
2026-05-04 20:55 18.71620 -98.32778 25954 ft 400 kts 283°
2026-05-04 20:55 18.72146 -98.35639 25384 ft 393 kts 283°
2026-05-04 20:55 18.72662 -98.38443 24911 ft 385 kts 283°
2026-05-04 20:55 18.73165 -98.41192 24410 ft 377 kts 283°
2026-05-04 20:56 18.73654 -98.43861 23930 ft 372 kts 283°
2026-05-04 20:56 18.74140 -98.46528 23441 ft 367 kts 283°
2026-05-04 20:56 18.74621 -98.49161 22863 ft 362 kts 283°
2026-05-04 20:56 18.75092 -98.51743 22379 ft 355 kts 283°
2026-05-04 20:57 18.75554 -98.54280 21910 ft 347 kts 283°
2026-05-04 20:57 18.76009 -98.56776 21462 ft 344 kts 283°
2026-05-04 20:57 18.76460 -98.59258 21010 ft 345 kts 283°
2026-05-04 20:57 18.76909 -98.61726 20548 ft 347 kts 283°
2026-05-04 20:58 18.77366 -98.64244 20088 ft 349 kts 283°
2026-05-04 20:58 18.77823 -98.66761 19623 ft 346 kts 283°
2026-05-04 20:58 18.78271 -98.69236 19145 ft 340 kts 283°
2026-05-04 20:58 18.78711 -98.71663 18534 ft 340 kts 283°
2026-05-04 20:59 18.79157 -98.74120 17975 ft 342 kts 283°
2026-05-04 20:59 18.79650 -98.76592 17597 ft 338 kts 290°
2026-05-04 20:59 18.80696 -98.78727 17551 ft 320 kts 312°
2026-05-04 20:59 18.82309 -98.80256 17512 ft 304 kts 329°
2026-05-04 21:00 18.84075 -98.81364 17465 ft 293 kts 331°
2026-05-04 21:00 18.85825 -98.82473 17410 ft 298 kts 330°
2026-05-04 21:00 18.87628 -98.83634 17332 ft 306 kts 330°
2026-05-04 21:00 18.89456 -98.84822 17265 ft 310 kts 330°
2026-05-04 21:01 18.91299 -98.86025 17148 ft 311 kts 330°
2026-05-04 21:01 18.93114 -98.87210 16919 ft 310 kts 330°
2026-05-04 21:01 18.94952 -98.88411 16626 ft 309 kts 330°
2026-05-04 21:01 18.96771 -98.89601 16305 ft 306 kts 330°
2026-05-04 21:02 18.98580 -98.90784 15986 ft 304 kts 330°
2026-05-04 21:02 19.00377 -98.91960 15663 ft 302 kts 330°
2026-05-04 21:02 19.02162 -98.93127 15338 ft 301 kts 329°
2026-05-04 21:02 19.03914 -98.94274 15021 ft 297 kts 330°
2026-05-04 21:03 19.05644 -98.95406 14712 ft 287 kts 330°
2026-05-04 21:03 19.07321 -98.96502 14411 ft 279 kts 330°
2026-05-04 21:03 19.08990 -98.97594 14103 ft 286 kts 329°
2026-05-04 21:03 19.10575 -98.98634 13816 ft 291 kts 329°
2026-05-04 21:04 19.12288 -98.99759 13504 ft 294 kts 329°
2026-05-04 21:04 19.14037 -99.00906 13170 ft 295 kts 329°
2026-05-04 21:04 19.15779 -99.02050 12925 ft 294 kts 329°
2026-05-04 21:04 19.17499 -99.03177 12806 ft 287 kts 329°
2026-05-04 21:05 19.19174 -99.04275 12669 ft 279 kts 329°
2026-05-04 21:05 19.20805 -99.05346 12541 ft 271 kts 329°
2026-05-04 21:05 19.22387 -99.06385 12441 ft 262 kts 329°
2026-05-04 21:05 19.23838 -99.07468 12294 ft 256 kts 314°
2026-05-04 21:06 19.24767 -99.09065 12005 ft 257 kts 293°
2026-05-04 21:06 19.25469 -99.10802 11732 ft 255 kts 294°
2026-05-04 21:06 19.26169 -99.12510 11442 ft 249 kts 294°
2026-05-04 21:06 19.26857 -99.14206 11190 ft 251 kts 294°
2026-05-04 21:07 19.27547 -99.15909 10937 ft 252 kts 296°
2026-05-04 21:07 19.28560 -99.17353 10513 ft 248 kts 324°
2026-05-04 21:07 19.30067 -99.18220 10081 ft 246 kts 336°
2026-05-04 21:07 19.31627 -99.19004 9544 ft 249 kts 336°
2026-05-04 21:08 19.33231 -99.19729 9169 ft 252 kts 346°
2026-05-04 21:08 19.34962 -99.19763 8905 ft 246 kts 14°
2026-05-04 21:08 19.36419 -99.19006 8810 ft 227 kts 37°
2026-05-04 21:08 19.37500 -99.17886 8826 ft 210 kts 52°
2026-05-04 21:09 19.38268 -99.16595 8872 ft 204 kts 62°
2026-05-04 21:09 19.38936 -99.15300 8897 ft 194 kts 59°
2026-05-04 21:09 19.39605 -99.14117 8885 ft 182 kts 59°
2026-05-04 21:09 19.40243 -99.12979 8689 ft 177 kts 59°
2026-05-04 21:10 19.40852 -99.11892 8334 ft 168 kts 59°
2026-05-04 21:10 19.41436 -99.10845 7979 ft 164 kts 56°
2026-05-04 21:10 19.42015 -99.09810 7736 ft 167 kts 58°
2026-05-04 21:10 19.42618 -99.08723 7448 ft 173 kts 57°
2026-05-04 21:11 19.43233 -99.07638 7309 ft 163 kts 58°
2026-05-04 21:11 19.43726 -99.06760 7306 ft 106 kts 60°
2026-05-04 21:11 19.44007 -99.06260 7303 ft 51 kts 59°
2026-05-04 21:11 19.44182 -99.05946 7303 ft 29 kts 59°
2026-05-04 21:12 19.44186 -99.05837 7305 ft 13 kts 159°
2026-05-04 21:12 19.44098 -99.05838 7305 ft 13 kts 188°
2026-05-04 21:12 19.44058 -99.05853 7305 ft 5 kts 210°
2026-05-04 21:12 19.44020 -99.05894 7305 ft 6 kts 232°
2026-05-04 21:13 19.43995 -99.05936 7305 ft 7 kts 240°
2026-05-04 21:13 19.43969 -99.05985 7305 ft 8 kts 240°
2026-05-04 21:13 19.43949 -99.06021 7305 ft 9 kts 238°
2026-05-04 21:13 19.43902 -99.06103 7305 ft 10 kts 238°
2026-05-04 21:14 19.43876 -99.06148 7305 ft 11 kts 238°
2026-05-04 21:14 19.43834 -99.06222 7305 ft 12 kts 241°
2026-05-04 21:14 19.43791 -99.06303 7305 ft 13 kts 240°
2026-05-04 21:14 19.43743 -99.06386 7305 ft 14 kts 239°
2026-05-04 21:15 19.43692 -99.06476 7305 ft 15 kts 240°
2026-05-04 21:15 19.43640 -99.06571 7305 ft 15 kts 239°
2026-05-04 21:15 19.43583 -99.06669 7305 ft 16 kts 236°
2026-05-04 21:15 19.43493 -99.06735 7305 ft 16 kts 207°
2026-05-04 21:16 19.43392 -99.06790 7305 ft 17 kts 207°
2026-05-04 21:16 19.43303 -99.06871 7305 ft 17 kts 238°
2026-05-04 21:16 19.43239 -99.06982 7305 ft 18 kts 239°
2026-05-04 21:16 19.43196 -99.07087 7305 ft 14 kts 258°
2026-05-04 21:17 19.43160 -99.07185 7305 ft 15 kts 239°
2026-05-04 21:17 19.43106 -99.07279 7305 ft 15 kts 239°
2026-05-04 21:17 19.43051 -99.07380 7305 ft 16 kts 239°
2026-05-04 21:17 19.42993 -99.07483 7305 ft 17 kts 238°
2026-05-04 21:18 19.42932 -99.07592 7305 ft 17 kts 240°
2026-05-04 21:18 19.42871 -99.07705 7305 ft 17 kts 233°
2026-05-04 21:18 19.42813 -99.07815 7305 ft 17 kts 239°
2026-05-04 21:18 19.42748 -99.07876 7305 ft 10 kts 165°
2026-05-04 21:19 19.42687 -99.07840 7305 ft 11 kts 148°
2026-05-04 21:19 19.42619 -99.07821 7305 ft 10 kts 218°
2026-05-04 21:19 19.42577 -99.07884 7305 ft 11 kts 226°
2026-05-04 21:19 19.42511 -99.07886 7305 ft 10 kts 163°
2026-05-04 21:20 19.42490 -99.07880 7305 ft 1 kts 163°
2026-05-04 21:20 19.42486 -99.07878 7305 ft 0 kts 162°